Weather History for Flippin, AR

Change the Weather History Date:

Friday, December 28, 2012

  Actual Average Record
Temperature  
Mean Temperature 32 °F -  
Max Temperature 35 °F 44 °F 62 °F (1996)
Min Temperature 30 °F 26 °F 21 °F (2001)
Degree Days  
Heating Degree Days 32    
Moisture  
Dew Point 26 °F    
Average Humidity 75    
Maximum Humidity 81    
Minimum Humidity 64    
Precipitation  
Precipitation 0.02 in - - ()
Sea Level Pressure  
Sea Level Pressure 29.95 in    
Wind  
Wind Speed 4 mph (NNW)    
Max Wind Speed 14 mph    
Max Gust Speed 23 mph    
Visibility 8 miles    
Events      
Averages and records for this station are not official NWS values.
T = Trace of Precipitation, MM = Missing Value Source: NWS Daily Summary

Daily Weather History Graph

Daily Weather History Graph

Search for Another Location

Airport:

Trip Planner

Search our weather history database for the weather conditions in past years. The results will help you decide how hot, cold, wet, or windy it might be!

Date:

Astronomy

Dec. 28, 2012 Rise Set
Actual Time 7:20 AM CST 5:03 PM CST
Civil Twilight 6:52 AM CST 5:32 PM CST
Nautical Twilight 6:20 AM CST 6:04 PM CST
Astronomical Twilight 5:48 AM CST 6:35 PM CST
Moon 5:38 PM CST (12/28) 7:17 AM CST (12/28)
Length of Visible Light 10h 40m
Length of Day
9h 42m
Full, 100% of the Moon is Illuminated
Dec 28
Full
Jan 4
Last Quarter
Jan 11
New
Jan 18
First Quarter
Jan 26
Full

Hourly Weather History & Observations

Time (CST) Temp. Windchill Dew Point Humidity Pressure Visibility Wind Dir Wind Speed Gust Speed Precip Events Conditions
12:15 AM 30.2 °F 25.4 °F 23.0 °F 75% 30.01 in 10.0 mi ESE 4.6 mph - N/A   Overcast
1:15 AM 30.2 °F 26.7 °F 23.0 °F 75% 30.01 in 10.0 mi ESE 3.5 mph - N/A   Overcast
1:35 AM 30.2 °F 25.4 °F 24.8 °F 80% 30.00 in 10.0 mi ESE 4.6 mph - N/A   Overcast
1:55 AM 30.2 °F 26.7 °F 24.8 °F 80% 30.00 in 10.0 mi ESE 3.5 mph - N/A   Overcast
2:15 AM 30.2 °F 25.4 °F 23.0 °F 75% 29.99 in 10.0 mi ENE 4.6 mph - N/A   Overcast
2:55 AM 30.2 °F 25.4 °F 23.0 °F 75% 30.00 in 10.0 mi East 4.6 mph - N/A   Overcast
3:55 AM 30.2 °F - 23.0 °F 75% 30.00 in 10.0 mi Calm Calm - N/A   Overcast
4:35 AM 30.2 °F - 23.0 °F 75% 30.00 in 10.0 mi Calm Calm - N/A   Overcast
4:55 AM 30.2 °F 26.7 °F 23.0 °F 75% 30.00 in 10.0 mi ESE 3.5 mph - N/A   Overcast
5:35 AM 30.2 °F 25.4 °F 23.0 °F 75% 29.98 in 9.0 mi East 4.6 mph - N/A   Overcast
5:55 AM 30.2 °F 26.7 °F 24.8 °F 80% 29.98 in 8.0 mi East 3.5 mph - N/A   Overcast
6:15 AM 30.2 °F - 24.8 °F 80% 29.98 in 8.0 mi Calm Calm - N/A   Overcast
6:35 AM 30.2 °F 26.7 °F 24.8 °F 80% 29.97 in 7.0 mi East 3.5 mph - N/A   Mostly Cloudy
7:55 AM 32.0 °F - 24.8 °F 75% 29.95 in 8.0 mi Calm Calm - N/A   Overcast
8:15 AM 32.0 °F 28.7 °F 24.8 °F 75% 29.97 in 9.0 mi East 3.5 mph - N/A   Mostly Cloudy
8:35 AM 32.0 °F - 24.8 °F 75% 29.98 in 9.0 mi Calm Calm - N/A   Overcast
8:55 AM 32.0 °F - 24.8 °F 75% 29.98 in 9.0 mi Calm Calm - N/A   Overcast
9:15 AM 32.0 °F - 24.8 °F 75% 29.98 in 9.0 mi Calm Calm - N/A   Overcast
9:35 AM 33.8 °F - 24.8 °F 70% 29.98 in 8.0 mi Calm Calm - N/A   Overcast
9:55 AM 33.8 °F - 26.6 °F 75% 29.96 in 8.0 mi Calm Calm - N/A   Overcast
10:55 AM 33.8 °F - 26.6 °F 75% 29.96 in 8.0 mi Calm Calm - N/A   Overcast
11:15 AM 33.8 °F - 26.6 °F 75% 29.96 in 8.0 mi Calm Calm - N/A   Overcast
11:35 AM 33.8 °F - 26.6 °F 75% 29.94 in 7.0 mi Calm Calm - N/A   Overcast
11:55 AM 33.8 °F - 26.6 °F 75% 29.91 in 5.0 mi Calm Calm - N/A   Overcast
12:55 PM 35.6 °F - 28.4 °F 75% 29.89 in 7.0 mi Calm Calm - N/A   Overcast
1:15 PM 35.6 °F - 28.4 °F 75% 29.88 in 7.0 mi Calm Calm - 0.01 in   Overcast
1:35 PM 35.6 °F - 28.4 °F 75% 29.87 in 8.0 mi Calm Calm - 0.01 in   Overcast
2:15 PM 35.6 °F 30.7 °F 28.4 °F 75% 29.87 in 6.0 mi NW 5.8 mph - N/A   Overcast
2:35 PM 35.6 °F 29.9 °F 28.4 °F 75% 29.87 in 4.0 mi NW 6.9 mph - N/A   Overcast
2:55 PM 33.8 °F 29.6 °F 28.4 °F 81% 29.87 in 2.5 mi NW 4.6 mph - N/A   Overcast
3:15 PM 33.8 °F 30.8 °F 28.4 °F 81% 29.87 in 3.0 mi NW 3.5 mph - N/A   Overcast
3:35 PM 33.8 °F 29.6 °F 28.4 °F 81% 29.88 in 4.0 mi NW 4.6 mph - N/A   Overcast
3:55 PM 35.6 °F 30.7 °F 28.4 °F 75% 29.88 in 5.0 mi NW 5.8 mph - 0.01 in   Overcast
4:35 PM 35.6 °F 29.9 °F 30.2 °F 81% 29.89 in 3.0 mi NW 6.9 mph - N/A   Overcast
5:15 PM 35.6 °F 30.7 °F 28.4 °F 75% 29.89 in 5.0 mi NW 5.8 mph - N/A   Overcast
5:35 PM 35.6 °F 31.7 °F 28.4 °F 75% 29.90 in 7.0 mi NW 4.6 mph - N/A   Overcast
6:35 PM 35.6 °F 28.6 °F 28.4 °F 75% 29.91 in 6.0 mi WNW 9.2 mph - N/A   Overcast
6:55 PM 33.8 °F 27.0 °F 28.4 °F 81% 29.92 in 5.0 mi WNW 8.1 mph - N/A   Overcast
7:15 PM 33.8 °F 27.7 °F 26.6 °F 75% 29.92 in 6.0 mi NW 6.9 mph - N/A   Overcast
7:55 PM 33.8 °F 27.7 °F 26.6 °F 75% 29.94 in 8.0 mi NW 6.9 mph - N/A   Mostly Cloudy
8:35 PM 33.8 °F 25.8 °F 26.6 °F 75% 29.95 in 7.0 mi NW 10.4 mph - N/A   Overcast
8:55 PM 33.8 °F 27.7 °F 26.6 °F 75% 29.95 in 8.0 mi NW 6.9 mph - N/A   Overcast
9:15 PM 33.8 °F 25.8 °F 26.6 °F 75% 29.96 in 8.0 mi WNW 10.4 mph - N/A   Overcast
9:35 PM 33.8 °F 28.6 °F 26.6 °F 75% 29.96 in 9.0 mi NW 5.8 mph - N/A   Overcast
9:55 PM 33.8 °F 26.4 °F 24.8 °F 70% 29.97 in 9.0 mi WNW 9.2 mph - N/A   Overcast
10:15 PM 33.8 °F 25.8 °F 24.8 °F 70% 29.98 in 10.0 mi NW 10.4 mph - N/A   Overcast
10:35 PM 33.8 °F 25.8 °F 24.8 °F 70% 29.98 in 10.0 mi NW 10.4 mph 16.1 mph N/A   Overcast
11:35 PM 32.0 °F 22.5 °F 21.2 °F 64% 30.00 in 10.0 mi NW 12.7 mph 23.0 mph N/A   Overcast
11:55 PM 32.0 °F 22.1 °F 21.2 °F 64% 30.01 in 10.0 mi WNW 13.8 mph 21.9 mph N/A   Overcast